Weather History for Chicago Lansing, IL

Change the Weather History Date:

Saturday, March 8, 2014

  Actual Average (KMDW) Record (KMDW)
Temperature  
Mean Temperature 28 °F 36 °F  
Max Temperature 38 °F 44 °F 79 °F (2000)
Min Temperature 17 °F 28 °F -7 °F (1943)
Degree Days  
Heating Degree Days 38 29  
Month to date heating degree days 243  
Since 1 July heating degree days 4754  
Cooling Degree Days 0 0  
Month to date cooling degree days 0  
Year to date cooling degree days 0  
Moisture  
Dew Point 23 °F    
Average Humidity 82    
Maximum Humidity 93    
Minimum Humidity 74    
Precipitation  
Precipitation 0.01 in 0.09 in 2.02 in (2009)
Month to date precipitation 0.69  
Year to date precipitation 4.69  
Sea Level Pressure  
Sea Level Pressure 30.15 in    
Wind  
Wind Speed 9 mph (NNE)    
Max Wind Speed 16 mph    
Max Gust Speed 23 mph    
Visibility 7 miles    
Events Snow    
T = Trace of Precipitation, MM = Missing Value Source: NWS Daily Summary

Daily Weather History Graph

Daily Weather History Graph

Search for Another Location

Airport:

Trip Planner

Search our weather history database for the weather conditions in past years. The results will help you decide how hot, cold, wet, or windy it might be!

Date:

Astronomy

Mar. 08, 2014 Rise Set
Actual Time 6:13 AM CST 5:48 PM CST
Civil Twilight 5:45 AM CST 6:16 PM CST
Nautical Twilight 5:13 AM CST 6:48 PM CST
Astronomical Twilight 4:41 AM CST 7:21 PM CST
Moon 10:49 AM CST (3/8) 12:51 AM CST (3/8)
Length of Visible Light 12h 30m
Length of Day
11h 35m
First Quarter, 52% of the Moon is Illuminated
Mar 8
First Quarter
Mar 16
Full
Mar 23
Last Quarter
Mar 30
New
Apr 7
First Quarter

Hourly Weather History & Observations

Time (CST) Temp. Windchill Dew Point Humidity Pressure Visibility Wind Dir Wind Speed Gust Speed Precip Events Conditions
12:15 AM 35.4 °F 32.6 °F 32.0 °F 87% 29.96 in 7.0 mi NNE 3.5 mph - N/A   Scattered Clouds
12:35 AM 38.3 °F 33.9 °F 31.8 °F 77% 29.97 in 7.0 mi NNE 5.8 mph - N/A   Clear
12:55 AM 37.6 °F 32.3 °F 31.6 °F 79% 29.98 in 5.0 mi NNE 6.9 mph - N/A   Haze
1:15 AM 37.6 °F 30.5 °F 31.8 °F 80% 29.98 in 5.0 mi NNE 10.4 mph - N/A   Haze
1:35 AM 35.8 °F 27.8 °F 31.1 °F 83% 29.99 in 5.0 mi North 11.5 mph 21.9 mph N/A   Haze
1:55 AM 33.8 °F 24.8 °F 29.5 °F 84% 30.00 in 5.0 mi NNE 12.7 mph 20.7 mph N/A   Haze
2:15 AM 33.8 °F 27.0 °F 29.1 °F 83% 30.01 in 5.0 mi North 8.1 mph - N/A   Haze
2:35 AM 32.9 °F 24.1 °F 28.4 °F 84% 30.01 in 5.0 mi NNE 11.5 mph 20.7 mph N/A   Haze
2:55 AM 32.5 °F 25.5 °F 28.4 °F 85% 30.01 in 5.0 mi NNE 8.1 mph - N/A   Haze
3:15 AM 32.4 °F 25.3 °F 27.7 °F 83% 30.02 in 7.0 mi NNE 8.1 mph - N/A   Overcast
3:35 AM 32.2 °F 23.8 °F 27.5 °F 83% 30.03 in 7.0 mi NNE 10.4 mph 16.1 mph N/A   Overcast
3:55 AM 32.0 °F 22.5 °F 27.1 °F 82% 30.03 in 7.0 mi NNE 12.7 mph 20.7 mph N/A   Overcast
4:15 AM 32.0 °F 24.2 °F 27.3 °F 83% 30.04 in 7.0 mi North 9.2 mph - N/A   Overcast
4:35 AM 32.0 °F 24.8 °F 27.5 °F 83% 30.04 in 7.0 mi North 8.1 mph - N/A   Overcast
4:55 AM 32.0 °F 22.5 °F 27.7 °F 84% 30.06 in 7.0 mi NNE 12.7 mph 20.7 mph N/A   Overcast
5:15 AM 31.6 °F 21.6 °F 26.4 °F 81% 30.07 in 7.0 mi NNE 13.8 mph 18.4 mph N/A   Overcast
5:35 AM 31.1 °F 22.4 °F 26.2 °F 82% 30.08 in 10.0 mi NNE 10.4 mph 18.4 mph N/A   Overcast
5:55 AM 30.9 °F 20.7 °F 26.6 °F 84% 30.08 in 10.0 mi NNE 13.8 mph 18.4 mph N/A Snow Light Snow
6:15 AM 30.4 °F 21.5 °F 27.0 °F 87% 30.10 in 4.0 mi North 10.4 mph 17.3 mph N/A Snow Light Snow
6:35 AM 30.2 °F 21.3 °F 27.3 °F 89% 30.11 in 1.2 mi North 10.4 mph - 0.01 in Snow Light Snow
6:55 AM 30.2 °F 21.9 °F 27.5 °F 90% 30.11 in 2.0 mi NNE 9.2 mph - 0.01 in Snow Light Snow
7:15 AM 30.2 °F 22.6 °F 27.3 °F 89% 30.11 in 3.0 mi NNE 8.1 mph 19.6 mph N/A Snow Light Snow
7:35 AM 30.2 °F 20.8 °F 26.6 °F 86% 30.12 in 3.0 mi North 11.5 mph 19.6 mph N/A Snow Light Snow
7:55 AM 30.0 °F 21.1 °F 26.6 °F 87% 30.13 in 2.0 mi NNE 10.4 mph 16.1 mph N/A Snow Light Snow
8:15 AM 30.0 °F 20.5 °F 26.6 °F 87% 30.13 in 2.0 mi North 11.5 mph 19.6 mph N/A Snow Light Snow
8:35 AM 30.2 °F 19.3 °F 26.6 °F 86% 30.13 in 4.0 mi NNE 15.0 mph 21.9 mph N/A Snow Light Snow
8:55 AM 29.8 °F 19.8 °F 26.1 °F 86% 30.14 in 5.0 mi North 12.7 mph 19.6 mph N/A Snow Light Snow
9:15 AM 29.8 °F 19.3 °F 25.7 °F 85% 30.15 in 7.0 mi North 13.8 mph 20.7 mph N/A Snow Light Snow
9:35 AM 29.8 °F 20.3 °F 25.7 °F 85% 30.16 in 4.0 mi North 11.5 mph - N/A Snow Light Snow
9:55 AM 29.3 °F 17.7 °F 25.3 °F 85% 30.16 in 1.8 mi North 16.1 mph 23.0 mph N/A Snow Light Snow
10:15 AM 29.3 °F 18.2 °F 25.0 °F 84% 30.16 in 3.0 mi North 15.0 mph 20.7 mph N/A Snow Light Snow
10:35 AM 29.1 °F 18.9 °F 24.1 °F 81% 30.17 in 5.0 mi North 12.7 mph 23.0 mph N/A Snow Light Snow
11:00 AM 28.8 °F 17.9 °F 23.9 °F 82% 30.17 in 10.0 mi NNE 13.8 mph 20.7 mph N/A   Overcast
11:15 AM 28.9 °F 21.1 °F 23.9 °F 81% 30.18 in 7.0 mi North 8.1 mph - N/A   Overcast
11:35 AM 29.1 °F 17.9 °F 23.9 °F 81% 30.17 in 10.0 mi North 15.0 mph 23.0 mph N/A   Overcast
11:55 AM 29.3 °F 19.1 °F 24.3 °F 81% 30.18 in 10.0 mi North 12.7 mph 18.4 mph N/A   Overcast
12:15 PM 29.3 °F 18.2 °F 23.7 °F 80% 30.19 in 10.0 mi North 15.0 mph 23.0 mph N/A   Overcast
12:35 PM 29.5 °F 18.8 °F 23.5 °F 79% 30.19 in 10.0 mi North 13.8 mph 20.7 mph N/A   Overcast
12:55 PM 29.3 °F 18.6 °F 23.2 °F 78% 30.18 in 10.0 mi North 13.8 mph 20.7 mph N/A   Overcast
1:15 PM 29.1 °F 17.9 °F 22.8 °F 77% 30.19 in 10.0 mi North 15.0 mph 19.6 mph N/A   Overcast
1:35 PM 28.9 °F 19.2 °F 22.5 °F 77% 30.19 in 10.0 mi North 11.5 mph 19.6 mph N/A   Overcast
1:55 PM 28.9 °F 18.6 °F 21.9 °F 75% 30.19 in 10.0 mi North 12.7 mph 18.4 mph N/A   Overcast
2:15 PM 28.4 °F 19.7 °F 21.9 °F 77% 30.19 in 10.0 mi North 9.2 mph 19.6 mph N/A   Overcast
2:35 PM 28.4 °F 18.5 °F 21.6 °F 76% 30.20 in 10.0 mi North 11.5 mph 16.1 mph N/A   Overcast
2:55 PM 27.9 °F 18.4 °F 21.0 °F 75% 30.20 in 10.0 mi North 10.4 mph - N/A   Overcast
3:15 PM 27.5 °F 17.4 °F 21.0 °F 77% 30.20 in 10.0 mi North 11.5 mph 16.1 mph N/A   Overcast
3:35 PM 27.1 °F 18.2 °F 20.1 °F 75% 30.20 in 10.0 mi NNE 9.2 mph 18.4 mph N/A   Overcast
3:55 PM 27.0 °F 18.0 °F 20.1 °F 75% 30.21 in 10.0 mi North 9.2 mph 16.1 mph N/A   Overcast
4:15 PM 27.0 °F 17.3 °F 19.6 °F 74% 30.21 in 10.0 mi North 10.4 mph - N/A   Overcast
4:35 PM 26.6 °F 16.8 °F 19.2 °F 74% 30.21 in 10.0 mi NNE 10.4 mph - N/A   Overcast
4:55 PM 26.6 °F 16.2 °F 19.4 °F 74% 30.21 in 10.0 mi NNE 11.5 mph - N/A   Overcast
5:15 PM 25.7 °F 15.7 °F 19.2 °F 76% 30.21 in 10.0 mi NNE 10.4 mph - N/A   Scattered Clouds
5:35 PM 25.5 °F 17.8 °F 19.0 °F 76% 30.22 in 10.0 mi North 6.9 mph - N/A   Clear
5:55 PM 24.8 °F 19.1 °F 18.5 °F 77% 30.22 in 10.0 mi North 4.6 mph - N/A   Clear
6:15 PM 24.4 °F 18.6 °F 18.9 °F 79% 30.23 in 10.0 mi North 4.6 mph - N/A   Clear
6:35 PM 24.3 °F 18.4 °F 18.9 °F 80% 30.24 in 10.0 mi North 4.6 mph - N/A   Clear
6:55 PM 24.3 °F 19.9 °F 18.9 °F 80% 30.25 in 10.0 mi North 3.5 mph - N/A   Scattered Clouds
7:15 PM 23.9 °F - 18.5 °F 80% 30.25 in 10.0 mi Calm Calm - N/A   Scattered Clouds
7:35 PM 23.9 °F - 18.7 °F 80% 30.25 in 10.0 mi Calm Calm - N/A   Mostly Cloudy
7:55 PM 24.1 °F - 19.2 °F 82% 30.26 in 10.0 mi Calm Calm - N/A   Overcast
8:15 PM 24.1 °F - 19.4 °F 82% 30.26 in 10.0 mi Calm Calm - N/A   Overcast
8:35 PM 23.9 °F - 19.4 °F 83% 30.26 in 10.0 mi Calm Calm - N/A   Overcast
8:55 PM 23.5 °F - 19.4 °F 84% 30.26 in 10.0 mi Calm Calm - N/A   Mostly Cloudy
9:15 PM 21.4 °F - 18.1 °F 87% 30.27 in 10.0 mi Calm Calm - N/A   Scattered Clouds
9:35 PM 20.7 °F - 18.3 °F 91% 30.27 in 10.0 mi Calm Calm - N/A   Clear
9:55 PM 19.2 °F - 17.2 °F 92% 30.27 in 7.0 mi Calm Calm - N/A   Clear
10:15 PM 17.8 °F - 15.6 °F 91% 30.26 in 5.0 mi Calm Calm - N/A   Clear
10:35 PM 18.1 °F - 16.2 °F 92% 30.26 in 5.0 mi Calm Calm - N/A   Clear
10:55 PM 18.3 °F - 16.5 °F 93% 30.26 in 4.0 mi Calm Calm - N/A   Clear
11:15 PM 17.1 °F - 14.9 °F 91% 30.25 in 4.0 mi Calm Calm - N/A   Clear
11:35 PM 17.8 °F - 15.6 °F 91% 30.25 in 5.0 mi Calm Calm - N/A   Clear